Boston, MA

12:51 PM EDT on April 25, 2018 (GMT -0400)
Logan International

Weather History for KBOS - November, 2013

Change the Weather History Date:

Monday, November 11, 2013

  Actual Average Record
Temperature  
Mean Temperature 47 °F 46 °F  
Max Temperature 53 °F 53 °F 69 °F (1966)
Min Temperature 41 °F 39 °F 23 °F (2017)
Degree Days  
Heating Degree Days 18 19  
Month to date heating degree days 181 192  
Since 1 July heating degree days 533 639  
Cooling Degree Days 0 0  
Month to date cooling degree days 1 0  
Year to date cooling degree days 920 747  
Moisture  
Dew Point 26 °F    
Average Humidity 43    
Maximum Humidity 58    
Minimum Humidity 28    
Precipitation  
Precipitation 0.00 in 0.13 in 1.10 in (1991)
Month to date precipitation 0.31 1.42  
Year to date precipitation 33.33 37.42  
Sea Level Pressure  
Sea Level Pressure 29.99 in    
Wind  
Wind Speed 13 mph (WSW)    
Max Wind Speed 24 mph    
Max Gust Speed 30 mph    
Visibility 10 miles    
Events      
T = Trace of Precipitation, MM = Missing Value Source: NWS Daily Summary

Daily Weather History Graph

Daily Weather History Graph

Search for Another Location

Airport or City:

Astronomy

Nov. 11, 2013 Rise Set
Actual Time 6:30 AM EST 4:25 PM EST
Civil Twilight 6:00 AM EST 4:55 PM EST
Nautical Twilight 5:26 AM EST 5:29 PM EST
Astronomical Twilight 4:53 AM EST 6:02 PM EST
Moon 1:11 PM EST (11/11) 12:04 AM EST (11/11)
Length of Visible Light 10h 55m
Length of Day
9h 55m
Waxing Gibbous, 66% of the Moon is Illuminated
Nov 11
Waxing Gibbous
Nov 17
Full
Nov 25
Last Quarter
Dec 2
New
Dec 9
First Quarter

Hourly Weather History & Observations

Time (EST) Temp. Windchill Dew Point Humidity Pressure Visibility Wind Dir Wind Speed Gust Speed Precip Events Conditions
12:54 AM 44.1 °F 35.9 °F 30.0 °F 58% 29.88 in 10.0 mi West 19.6 mph 27.6 mph N/A   Partly Cloudy
1:54 AM 43.0 °F 35.4 °F 27.0 °F 53% 29.91 in 10.0 mi West 16.1 mph 29.9 mph N/A   Scattered Clouds
2:54 AM 42.1 °F 34.9 °F 26.1 °F 53% 29.93 in 10.0 mi West 13.8 mph 21.9 mph N/A   Clear
3:54 AM 42.1 °F 33.6 °F 25.0 °F 51% 29.95 in 10.0 mi WNW 18.4 mph 26.5 mph N/A   Clear
4:54 AM 41.0 °F 33.9 °F 25.0 °F 53% 29.99 in 10.0 mi WNW 12.7 mph 21.9 mph N/A   Clear
5:54 AM 41.0 °F 33.1 °F 24.1 °F 51% 30.02 in 10.0 mi WNW 15.0 mph - N/A   Partly Cloudy
6:54 AM 41.0 °F 34.7 °F 25.0 °F 53% 30.06 in 10.0 mi WNW 10.4 mph - N/A   Partly Cloudy
7:54 AM 42.1 °F 34.9 °F 24.1 °F 49% 30.09 in 10.0 mi WNW 13.8 mph 25.3 mph N/A   Scattered Clouds
8:54 AM 44.1 °F 36.8 °F 24.1 °F 45% 30.10 in 10.0 mi WNW 16.1 mph 20.7 mph N/A   Scattered Clouds
9:54 AM 46.0 °F 41.0 °F 25.0 °F 44% 30.10 in 10.0 mi West 10.4 mph - N/A   Scattered Clouds
10:54 AM 48.0 °F - 25.0 °F 41% 30.09 in 10.0 mi West 16.1 mph 20.7 mph N/A   Scattered Clouds
11:54 AM 50.0 °F - 23.0 °F 35% 30.06 in 10.0 mi West 8.1 mph 17.3 mph N/A   Partly Cloudy
12:54 PM 50.0 °F - 24.1 °F 36% 30.03 in 10.0 mi WSW 9.2 mph - N/A   Partly Cloudy
1:54 PM 53.1 °F - 21.9 °F 30% 30.01 in 10.0 mi WSW 12.7 mph 16.1 mph N/A   Scattered Clouds
2:54 PM 52.0 °F - 21.0 °F 30% 29.99 in 10.0 mi WSW 12.7 mph - N/A   Scattered Clouds
3:54 PM 50.0 °F - 23.0 °F 35% 29.99 in 10.0 mi SW 12.7 mph - N/A   Mostly Cloudy
4:54 PM 50.0 °F - 24.1 °F 36% 29.98 in 10.0 mi SW 9.2 mph - N/A   Mostly Cloudy
5:54 PM 48.9 °F - 25.0 °F 39% 29.99 in 10.0 mi SW 6.9 mph - N/A   Mostly Cloudy
6:54 PM 48.9 °F - 26.1 °F 41% 29.98 in 10.0 mi SW 10.4 mph - N/A   Overcast
7:54 PM 48.9 °F - 28.0 °F 44% 29.97 in 10.0 mi WSW 13.8 mph - N/A   Overcast
8:54 PM 48.0 °F - 28.0 °F 46% 29.95 in 10.0 mi SW 15.0 mph - N/A   Mostly Cloudy
9:54 PM 48.0 °F - 28.9 °F 48% 29.94 in 10.0 mi SW 11.5 mph - N/A   Overcast
10:54 PM 48.0 °F - 30.9 °F 52% 29.92 in 10.0 mi SW 12.7 mph - N/A   Overcast
11:54 PM 48.9 °F - 32.0 °F 52% 29.91 in 10.0 mi SW 11.5 mph - N/A   Overcast